When you browse on this site, cookies collect data to enhance your experience and personalize the content and advertising you see.
Visit our Privacy Policy to learn more. By continuing to use the site, you agree to this use of cookies and data.

Météo par heure à Mangotsfield

Ce jour, 3 Juillet, Vendredi

Heure Température Précipitation Vent Pression Humidité
00:00 +11°C° 0 mm 3 m/s 756 mmHg 91%
01:00 +11°C° 0 mm 3 m/s 756 mmHg 92%
02:00 +11°C° 0 mm 3 m/s 756 mmHg 93%
03:00 +11°C° 0 mm 3 m/s 756 mmHg 93%
04:00 +11°C° 0 mm 4 m/s 756 mmHg 92%
05:00 +12°C° 0 mm 5 m/s 756 mmHg 90%
06:00 +12°C° 0 mm 5 m/s 756 mmHg 88%
07:00 +13°C° 0 mm 6 m/s 756 mmHg 85%
08:00 +14°C° 0 mm 6 m/s 756 mmHg 82%
09:00 +14°C° 0 mm 7 m/s 756 mmHg 79%
10:00 +15°C° 0 mm 7 m/s 756 mmHg 79%
11:00 +15°C° 0 mm 7 m/s 756 mmHg 79%
12:00 +16°C° 0 mm 8 m/s 756 mmHg 79%
13:00 +15°C° 0.1 mm 8 m/s 756 mmHg 81%
14:00 +15°C° 0.1 mm 8 m/s 756 mmHg 83%
15:00 +15°C° 0.1 mm 8 m/s 756 mmHg 84%
16:00 +15°C° 0.3 mm 7 m/s 755 mmHg 87%
17:00 +14°C° 0.3 mm 7 m/s 755 mmHg 90%
18:00 +14°C° 0.3 mm 7 m/s 755 mmHg 92%
19:00 +14°C° 0.2 mm 7 m/s 755 mmHg 93%
20:00 +15°C° 0.2 mm 7 m/s 755 mmHg 94%
21:00 +15°C° 0.2 mm 7 m/s 755 mmHg 94%
22:00 +15°C° 0.1 mm 6 m/s 755 mmHg 95%
23:00 +15°C° 0.1 mm 6 m/s 754 mmHg 95%

Demain, 4 Juillet, Samedi

Heure Température Précipitation Vent Pression Humidité
00:00 +15°C° 0.1 mm 6 m/s 754 mmHg 95%
01:00 +16°C° 0.3 mm 6 m/s 754 mmHg 95%
02:00 +16°C° 0.3 mm 6 m/s 754 mmHg 96%
03:00 +16°C° 0.3 mm 6 m/s 753 mmHg 96%
04:00 +16°C° 0.9 mm 6 m/s 753 mmHg 96%
05:00 +16°C° 0.9 mm 6 m/s 753 mmHg 96%
06:00 +16°C° 0.9 mm 6 m/s 753 mmHg 96%
07:00 +16°C° 0.6 mm 6 m/s 752 mmHg 96%
08:00 +16°C° 0.6 mm 6 m/s 752 mmHg 96%
09:00 +16°C° 0.6 mm 6 m/s 752 mmHg 96%
10:00 +17°C° 0.1 mm 7 m/s 752 mmHg 94%
11:00 +17°C° 0.1 mm 7 m/s 752 mmHg 92%
12:00 +18°C° 0.1 mm 8 m/s 752 mmHg 90%
13:00 +17°C° 0.1 mm 8 m/s 752 mmHg 90%
14:00 +17°C° 0.1 mm 7 m/s 752 mmHg 91%
15:00 +16°C° 0.1 mm 7 m/s 752 mmHg 92%
16:00 +17°C° 0 mm 7 m/s 752 mmHg 92%
17:00 +17°C° 0 mm 7 m/s 753 mmHg 92%
18:00 +17°C° 0 mm 6 m/s 753 mmHg 92%
19:00 +17°C° 0 mm 6 m/s 753 mmHg 91%
20:00 +16°C° 0 mm 6 m/s 753 mmHg 91%
21:00 +16°C° 0 mm 6 m/s 754 mmHg 90%
22:00 +16°C° 0 mm 7 m/s 753 mmHg 90%
23:00 +16°C° 0 mm 7 m/s 753 mmHg 89%

Après-demain, 5 Juillet, Dimanche

Heure Température Précipitation Vent Pression Humidité
00:00 +15°C° 0 mm 7 m/s 753 mmHg 89%
01:00 +16°C° 0 mm 7 m/s 753 mmHg 88%
02:00 +16°C° 0 mm 7 m/s 752 mmHg 87%
03:00 +16°C° 0 mm 7 m/s 752 mmHg 86%
04:00 +17°C° 0.3 mm 8 m/s 752 mmHg 88%
05:00 +17°C° 0.3 mm 9 m/s 751 mmHg 90%
06:00 +17°C° 0.3 mm 9 m/s 751 mmHg 93%
07:00 +17°C° 0.1 mm 9 m/s 751 mmHg 91%
08:00 +17°C° 0.1 mm 9 m/s 751 mmHg 90%
09:00 +17°C° 0.1 mm 9 m/s 751 mmHg 88%
10:00 +17°C° 0.1 mm 10 m/s 752 mmHg 82%
11:00 +17°C° 0.1 mm 10 m/s 752 mmHg 76%
12:00 +18°C° 0.1 mm 10 m/s 752 mmHg 70%
13:00 +17°C° 0 mm 10 m/s 752 mmHg 68%
14:00 +17°C° 0 mm 10 m/s 753 mmHg 67%
15:00 +17°C° 0 mm 9 m/s 753 mmHg 66%
16:00 +16°C° 0 mm 9 m/s 753 mmHg 68%
17:00 +15°C° 0 mm 9 m/s 753 mmHg 69%
18:00 +15°C° 0 mm 8 m/s 753 mmHg 71%
19:00 +13°C° 0 mm 8 m/s 754 mmHg 73%
20:00 +12°C° 0 mm 7 m/s 754 mmHg 74%
21:00 +11°C° 0 mm 7 m/s 754 mmHg 76%
22:00 +11°C° 0 mm 7 m/s 754 mmHg 77%
23:00 +11°C° 0 mm 7 m/s 754 mmHg 77%

6 Juillet, Lundi

Heure Température Précipitation Vent Pression Humidité
00:00 +10°C° 0 mm 7 m/s 754 mmHg 77%
01:00 +10°C° 0 mm 7 m/s 754 mmHg 78%
02:00 +10°C° 0 mm 7 m/s 755 mmHg 78%
03:00 +10°C° 0 mm 7 m/s 755 mmHg 79%
04:00 +10°C° 0 mm 7 m/s 755 mmHg 79%
05:00 +10°C° 0 mm 6 m/s 756 mmHg 80%
06:00 +11°C° 0 mm 6 m/s 756 mmHg 80%
07:00 +12°C° 0 mm 7 m/s 757 mmHg 77%
08:00 +14°C° 0 mm 7 m/s 758 mmHg 73%
09:00 +15°C° 0 mm 7 m/s 758 mmHg 69%
10:00 +15°C° 0 mm 7 m/s 759 mmHg 67%
11:00 +16°C° 0 mm 7 m/s 759 mmHg 64%
12:00 +17°C° 0 mm 6 m/s 760 mmHg 62%
13:00 +17°C° 0 mm 6 m/s 760 mmHg 62%
14:00 +17°C° 0 mm 6 m/s 761 mmHg 63%
15:00 +17°C° 0 mm 6 m/s 761 mmHg 63%
16:00 +17°C° 0 mm 6 m/s 762 mmHg 64%
17:00 +16°C° 0 mm 5 m/s 762 mmHg 66%
18:00 +16°C° 0 mm 5 m/s 762 mmHg 68%
19:00 +14°C° 0 mm 4 m/s 762 mmHg 72%
20:00 +13°C° 0 mm 3 m/s 763 mmHg 77%
21:00 +12°C° 0 mm 2 m/s 763 mmHg 82%
22:00 +10°C° 0 mm 2 m/s 763 mmHg 83%
23:00 +11°C° 0 mm 1 m/s 763 mmHg 85%

7 Juillet, Mardi

Heure Température Précipitation Vent Pression Humidité
00:00 +10°C° 0 mm 1 m/s 764 mmHg 86%
01:00 +10°C° 0 mm 1 m/s 763 mmHg 86%
02:00 +8°C° 0 mm 0 m/s 763 mmHg 86%
03:00 +8°C° 0 mm 0 m/s 763 mmHg 87%
04:00 +9°C° 0 mm 0 m/s 763 mmHg 84%
05:00 +10°C° 0 mm 0 m/s 763 mmHg 82%
06:00 +11°C° 0 mm 0 m/s 763 mmHg 80%
07:00 +13°C° 0 mm 1 m/s 764 mmHg 75%
08:00 +15°C° 0 mm 1 m/s 764 mmHg 70%
09:00 +18°C° 0 mm 1 m/s 764 mmHg 65%
10:00 +17°C° 0 mm 2 m/s 764 mmHg 63%
11:00 +18°C° 0 mm 2 m/s 764 mmHg 62%
12:00 +19°C° 0 mm 3 m/s 763 mmHg 61%
13:00 +19°C° 0 mm 3 m/s 763 mmHg 62%
14:00 +20°C° 0 mm 3 m/s 763 mmHg 62%
15:00 +20°C° 0 mm 3 m/s 763 mmHg 62%
16:00 +20°C° 0 mm 3 m/s 763 mmHg 65%
17:00 +19°C° 0 mm 3 m/s 763 mmHg 68%
18:00 +19°C° 0 mm 3 m/s 762 mmHg 72%
19:00 +17°C° 0 mm 3 m/s 762 mmHg 76%
20:00 +14°C° 0 mm 3 m/s 762 mmHg 81%
21:00 +14°C° 0 mm 2 m/s 762 mmHg 85%
22:00 +13°C° 0 mm 2 m/s 762 mmHg 85%
23:00 +13°C° 0 mm 2 m/s 762 mmHg 85%

8 Juillet, Mercredi

Heure Température Précipitation Vent Pression Humidité
00:00 +12°C° 0 mm 2 m/s 762 mmHg 85%
01:00 +12°C° 0 mm 2 m/s 762 mmHg 85%
02:00 +10°C° 0 mm 2 m/s 762 mmHg 85%
03:00 +10°C° 0 mm 2 m/s 761 mmHg 85%
04:00 +12°C° 0 mm 2 m/s 761 mmHg 84%
05:00 +13°C° 0 mm 2 m/s 761 mmHg 84%
06:00 +13°C° 0 mm 2 m/s 761 mmHg 83%
07:00 +15°C° 0 mm 2 m/s 761 mmHg 77%
08:00 +16°C° 0 mm 3 m/s 761 mmHg 72%
09:00 +18°C° 0 mm 3 m/s 761 mmHg 66%
10:00 +19°C° 0 mm 3 m/s 760 mmHg 64%
11:00 +20°C° 0 mm 4 m/s 760 mmHg 62%
12:00 +21°C° 0 mm 4 m/s 760 mmHg 60%
13:00 +21°C° 0 mm 4 m/s 760 mmHg 61%
14:00 +21°C° 0 mm 4 m/s 759 mmHg 61%
15:00 +21°C° 0 mm 4 m/s 759 mmHg 62%
16:00 +20°C° 0 mm 4 m/s 759 mmHg 64%
17:00 +20°C° 0 mm 4 m/s 758 mmHg 66%
18:00 +19°C° 0 mm 4 m/s 758 mmHg 67%
19:00 +17°C° 0 mm 3 m/s 758 mmHg 70%
20:00 +14°C° 0 mm 3 m/s 758 mmHg 74%
21:00 +13°C° 0 mm 3 m/s 758 mmHg 77%
22:00 +12°C° 0 mm 3 m/s 758 mmHg 79%
23:00 +13°C° 0 mm 2 m/s 757 mmHg 81%
Voir plus